• In Uzbekistan
  • List of Countries
  • For 7 days
  • Water Temperature
  • Satellite Maps
  • Weather Map
  • Weather Widgets
  • user-avatar
    Login

    Hourly Weather Borzykowo

    Today, 26 April, Thursday

    Time Temperature Precipitation Wind Pressure Humidity
    00:00 +4°C° 0 mm 4 mps 739 mmHg 90%
    01:00 +4°C° 0 mm 4 mps 740 mmHg 91%
    02:00 +4°C° 0 mm 4 mps 740 mmHg 92%
    03:00 +4°C° 0 mm 4 mps 740 mmHg 92%
    04:00 +4°C° 0 mm 4 mps 740 mmHg 92%
    05:00 +5°C° 0.1 mm 5 mps 740 mmHg 90%
    06:00 +5°C° 0.1 mm 5 mps 740 mmHg 88%
    07:00 +5°C° 0.1 mm 6 mps 740 mmHg 86%
    08:00 +6°C° 0 mm 5 mps 741 mmHg 82%
    09:00 +7°C° 0 mm 5 mps 741 mmHg 79%
    10:00 +8°C° 0 mm 5 mps 741 mmHg 75%
    11:00 +8°C° 0.3 mm 5 mps 741 mmHg 72%
    12:00 +9°C° 0.3 mm 5 mps 741 mmHg 68%
    13:00 +11°C° 0.3 mm 4 mps 741 mmHg 64%
    14:00 +11°C° 0.6 mm 4 mps 741 mmHg 68%
    15:00 +10°C° 0.6 mm 4 mps 741 mmHg 72%
    16:00 +10°C° 0.6 mm 4 mps 741 mmHg 77%
    17:00 +8°C° 0.2 mm 4 mps 741 mmHg 80%
    18:00 +7°C° 0.2 mm 4 mps 741 mmHg 84%
    19:00 +7°C° 0.2 mm 3 mps 741 mmHg 88%
    20:00 +6°C° 0 mm 4 mps 742 mmHg 89%
    21:00 +5°C° 0 mm 4 mps 742 mmHg 90%
    22:00 +5°C° 0 mm 4 mps 742 mmHg 92%
    23:00 +4°C° 0 mm 4 mps 743 mmHg 92%

    Tomorrow, 27 April, Friday

    Time Temperature Precipitation Wind Pressure Humidity
    00:00 +4°C° 0 mm 4 mps 743 mmHg 92%
    01:00 +4°C° 0 mm 4 mps 743 mmHg 92%
    02:00 +3°C° 0 mm 4 mps 743 mmHg 93%
    03:00 +3°C° 0 mm 4 mps 743 mmHg 94%
    04:00 +2°C° 0 mm 3 mps 743 mmHg 96%
    05:00 +3°C° 0 mm 4 mps 744 mmHg 91%
    06:00 +4°C° 0 mm 4 mps 744 mmHg 87%
    07:00 +5°C° 0 mm 4 mps 745 mmHg 82%
    08:00 +6°C° 0 mm 4 mps 745 mmHg 75%
    09:00 +8°C° 0 mm 4 mps 745 mmHg 67%
    10:00 +9°C° 0 mm 5 mps 745 mmHg 59%
    11:00 +11°C° 0 mm 4 mps 745 mmHg 55%
    12:00 +12°C° 0 mm 4 mps 745 mmHg 51%
    13:00 +13°C° 0 mm 4 mps 745 mmHg 47%
    14:00 +13°C° 0 mm 3 mps 745 mmHg 48%
    15:00 +13°C° 0 mm 3 mps 745 mmHg 49%
    16:00 +13°C° 0 mm 3 mps 745 mmHg 50%
    17:00 +13°C° 0.1 mm 2 mps 744 mmHg 56%
    18:00 +12°C° 0.1 mm 2 mps 744 mmHg 62%
    19:00 +11°C° 0.1 mm 1 mps 744 mmHg 68%
    20:00 +9°C° 0 mm 2 mps 744 mmHg 69%
    21:00 +9°C° 0 mm 2 mps 744 mmHg 71%
    22:00 +8°C° 0 mm 3 mps 744 mmHg 73%
    23:00 +8°C° 0 mm 3 mps 743 mmHg 71%

    Day after tomorrow, 28 April, Saturday

    Time Temperature Precipitation Wind Pressure Humidity
    00:00 +8°C° 0 mm 4 mps 743 mmHg 69%
    01:00 +8°C° 0 mm 4 mps 742 mmHg 67%
    02:00 +7°C° 0 mm 4 mps 742 mmHg 68%
    03:00 +7°C° 0 mm 4 mps 741 mmHg 70%
    04:00 +6°C° 0 mm 5 mps 740 mmHg 71%
    05:00 +7°C° 0.1 mm 5 mps 740 mmHg 72%
    06:00 +8°C° 0.1 mm 5 mps 740 mmHg 72%
    07:00 +9°C° 0.1 mm 5 mps 740 mmHg 73%
    08:00 +12°C° 0 mm 5 mps 740 mmHg 68%
    09:00 +14°C° 0 mm 6 mps 740 mmHg 64%
    10:00 +16°C° 0 mm 6 mps 740 mmHg 59%
    11:00 +15°C° 0 mm 6 mps 740 mmHg 60%
    12:00 +15°C° 0 mm 6 mps 741 mmHg 60%
    13:00 +15°C° 0 mm 6 mps 741 mmHg 61%
    14:00 +14°C° 0.1 mm 6 mps 742 mmHg 62%
    15:00 +14°C° 0.1 mm 6 mps 742 mmHg 63%
    16:00 +14°C° 0.1 mm 5 mps 742 mmHg 64%
    17:00 +13°C° 0.1 mm 5 mps 743 mmHg 69%
    18:00 +12°C° 0.1 mm 4 mps 743 mmHg 75%
    19:00 +10°C° 0.1 mm 3 mps 743 mmHg 80%
    20:00 +9°C° 0 mm 3 mps 744 mmHg 85%
    21:00 +8°C° 0 mm 3 mps 744 mmHg 89%
    22:00 +7°C° 0 mm 2 mps 745 mmHg 94%
    23:00 +6°C° 0 mm 2 mps 745 mmHg 95%

    29 April, Sunday

    Time Temperature Precipitation Wind Pressure Humidity
    00:00 +6°C° 0 mm 2 mps 745 mmHg 95%
    01:00 +5°C° 0 mm 2 mps 745 mmHg 96%
    02:00 +6°C° 0 mm 1 mps 746 mmHg 96%
    03:00 +5°C° 0 mm 1 mps 746 mmHg 96%
    04:00 +5°C° 0 mm 1 mps 746 mmHg 95%
    05:00 +7°C° 0 mm 1 mps 747 mmHg 89%
    06:00 +8°C° 0 mm 1 mps 747 mmHg 83%
    07:00 +9°C° 0 mm 1 mps 747 mmHg 77%
    08:00 +11°C° 0 mm 1 mps 747 mmHg 68%
    09:00 +13°C° 0 mm 1 mps 748 mmHg 60%
    10:00 +16°C° 0 mm 1 mps 748 mmHg 52%
    11:00 +16°C° 0 mm 1 mps 748 mmHg 49%
    12:00 +18°C° 0 mm 1 mps 747 mmHg 47%
    13:00 +18°C° 0 mm 2 mps 747 mmHg 44%
    14:00 +18°C° 0 mm 2 mps 747 mmHg 46%
    15:00 +18°C° 0 mm 3 mps 746 mmHg 47%
    16:00 +17°C° 0 mm 3 mps 746 mmHg 48%
    17:00 +16°C° 0 mm 3 mps 746 mmHg 54%
    18:00 +14°C° 0 mm 4 mps 746 mmHg 60%
    19:00 +12°C° 0 mm 4 mps 745 mmHg 65%
    20:00 +12°C° 0 mm 4 mps 745 mmHg 68%
    21:00 +11°C° 0 mm 4 mps 745 mmHg 70%
    22:00 +10°C° 0 mm 4 mps 745 mmHg 72%
    23:00 +10°C° 0 mm 4 mps 744 mmHg 74%

    30 April, Monday

    Time Temperature Precipitation Wind Pressure Humidity
    00:00 +10°C° 0 mm 4 mps 744 mmHg 76%
    01:00 +9°C° 0 mm 5 mps 743 mmHg 78%
    02:00 +9°C° 0.3 mm 5 mps 743 mmHg 80%
    03:00 +8°C° 0.3 mm 5 mps 743 mmHg 82%
    04:00 +8°C° 0.3 mm 5 mps 742 mmHg 84%
    05:00 +9°C° 0 mm 6 mps 742 mmHg 82%
    06:00 +10°C° 0 mm 6 mps 742 mmHg 80%
    07:00 +11°C° 0 mm 6 mps 741 mmHg 79%
    08:00 +14°C° 0 mm 6 mps 741 mmHg 75%
    09:00 +16°C° 0 mm 6 mps 741 mmHg 71%
    10:00 +19°C° 0 mm 6 mps 740 mmHg 67%
    11:00 +21°C° 0 mm 6 mps 740 mmHg 63%
    12:00 +23°C° 0 mm 6 mps 740 mmHg 60%
    13:00 +24°C° 0 mm 6 mps 739 mmHg 57%
    14:00 +25°C° 0.5 mm 5 mps 739 mmHg 58%
    15:00 +25°C° 0.5 mm 5 mps 738 mmHg 59%
    16:00 +25°C° 0.5 mm 5 mps 738 mmHg 60%
    17:00 +23°C° 0.5 mm 4 mps 737 mmHg 66%
    18:00 +21°C° 0.5 mm 4 mps 737 mmHg 73%
    19:00 +20°C° 0.5 mm 3 mps 737 mmHg 79%
    20:00 +19°C° 1.1 mm 3 mps 737 mmHg 82%
    21:00 +18°C° 1.1 mm 3 mps 737 mmHg 86%
    22:00 +17°C° 1.1 mm 3 mps 737 mmHg 89%
    23:00 +17°C° 0.6 mm 3 mps 737 mmHg 91%

    1 May, Tuesday

    Time Temperature Precipitation Wind Pressure Humidity
    00:00 +16°C° 0.6 mm 3 mps 737 mmHg 93%
    01:00 +16°C° 0.6 mm 3 mps 737 mmHg 95%
    02:00 +16°C° 0.3 mm 3 mps 737 mmHg 95%
    03:00 +15°C° 0.3 mm 4 mps 738 mmHg 94%
    04:00 +15°C° 0.3 mm 5 mps 738 mmHg 93%
    05:00 +14°C° 0.1 mm 5 mps 738 mmHg 92%
    06:00 +13°C° 0.1 mm 5 mps 739 mmHg 91%
    07:00 +13°C° 0.1 mm 5 mps 739 mmHg 90%
    08:00 +12°C° 0 mm 5 mps 740 mmHg 89%
    09:00 +12°C° 0 mm 5 mps 741 mmHg 87%
    10:00 +12°C° 0 mm 5 mps 741 mmHg 86%
    11:00 +12°C° 0 mm 5 mps 742 mmHg 84%
    12:00 +12°C° 0 mm 5 mps 742 mmHg 83%
    13:00 +12°C° 0 mm 5 mps 742 mmHg 82%
    14:00 +12°C° 0 mm 5 mps 742 mmHg 77%
    15:00 +13°C° 0 mm 5 mps 743 mmHg 71%
    16:00 +14°C° 0 mm 5 mps 743 mmHg 66%
    17:00 +13°C° 0 mm 4 mps 743 mmHg 68%
    18:00 +11°C° 0 mm 4 mps 743 mmHg 70%
    19:00 +10°C° 0 mm 3 mps 743 mmHg 72%
    20:00 +9°C° 0 mm 3 mps 744 mmHg 75%
    21:00 +8°C° 0 mm 2 mps 744 mmHg 79%
    22:00 +7°C° 0 mm 2 mps 744 mmHg 83%
    23:00 +7°C° 0 mm 2 mps 745 mmHg 84%
    Show more